| time (UTC) | temp F | wind direction | speed knots | gust knots | rain 1hr in | rain 24hr in | rain mn in | humidity % | barometer mb |
| 20260504040041 | 51 | 0 | 0.0 | 0.9 | 0.00 | 0.00 | 0.00 | 49 | 1002.8 |
| 20260504035522 | 52 | 0 | 0.0 | 0.0 | 0.00 | 0.00 | 0.00 | 49 | 1002.9 |
| 20260504035020 | 52 | 0 | 0.0 | 0.0 | 0.00 | 0.00 | 0.00 | 49 | 1003.1 |
| 20260504034554 | 52 | 0 | 0.0 | 0.9 | 0.00 | 0.00 | 0.00 | 48 | 1003.1 |
| 20260504034016 | 52 | 0 | 0.0 | 0.9 | 0.00 | 0.00 | 0.00 | 48 | 1003.2 |
| 20260504033518 | 53 | 0 | 0.0 | 0.0 | 0.00 | 0.00 | 0.00 | 47 | 1003.3 |
| 20260504033050 | 53 | 0 | 0.0 | 0.0 | 0.00 | 0.00 | 0.00 | 46 | 1003.3 |
| 20260504032517 | 53 | 0 | 0.0 | 0.0 | 0.00 | 0.00 | 0.00 | 46 | 1003.4 |
| 20260504032021 | 54 | 0 | 0.0 | 0.0 | 0.00 | 0.00 | 0.00 | 46 | 1003.4 |
| 20260504031536 | 54 | 0 | 0.0 | 0.0 | 0.00 | 0.00 | 0.00 | 45 | 1003.6 |
| 20260504031018 | 54 | 0 | 0.0 | 0.0 | 0.00 | 0.00 | 0.00 | 45 | 1003.6 |
| 20260504030516 | 55 | 0 | 0.0 | 0.0 | 0.00 | 0.00 | 0.00 | 44 | 1003.6 |
| 20260504030044 | 55 | 0 | 0.0 | 0.0 | 0.00 | 0.00 | 0.00 | 43 | 1003.6 |
| 20260504025518 | 55 | 0 | 0.0 | 0.0 | 0.00 | 0.00 | 0.00 | 43 | 1003.6 |
| 20260504025022 | 56 | 0 | 0.0 | 0.0 | 0.00 | 0.00 | 0.00 | 42 | 1003.7 |
| 20260504024536 | 56 | 0 | 0.0 | 0.0 | 0.00 | 0.00 | 0.00 | 42 | 1003.6 |
| 20260504024017 | 56 | 0 | 0.0 | 0.0 | 0.00 | 0.00 | 0.00 | 42 | 1003.7 |
| 20260504023519 | 57 | 0 | 0.0 | 0.9 | 0.00 | 0.00 | 0.00 | 41 | 1003.7 |
| 20260504023051 | 57 | 0 | 0.0 | 0.9 | 0.00 | 0.00 | 0.00 | 40 | 1003.7 |
| 20260504022519 | 58 | 0 | 0.0 | 0.0 | 0.00 | 0.00 | 0.00 | 39 | 1003.8 |
| 20260504022017 | 58 | 0 | 0.0 | 0.0 | 0.00 | 0.00 | 0.00 | 39 | 1003.7 |
| 20260504021538 | 59 | 0 | 0.0 | 0.9 | 0.00 | 0.00 | 0.00 | 37 | 1003.7 |
| 20260504021016 | 59 | 0 | 0.0 | 0.9 | 0.00 | 0.00 | 0.00 | 36 | 1003.6 |
| 20260504020518 | 60 | 0 | 0.0 | 0.9 | 0.00 | 0.00 | 0.00 | 36 | 1003.6 |
| 20260504020038 | 60 | 0 | 0.0 | 0.9 | 0.00 | 0.00 | 0.00 | 35 | 1003.7 |
| 20260504015516 | 61 | 0 | 0.0 | 1.7 | 0.00 | 0.00 | 0.00 | 35 | 1003.7 |
| 20260504015021 | 61 | 0 | 0.0 | 2.6 | 0.00 | 0.00 | 0.00 | 34 | 1003.6 |
| 20260504014546 | 62 | 0 | 0.0 | 2.6 | 0.00 | 0.00 | 0.00 | 34 | 1003.7 |
| 20260504014018 | 62 | 0 | 0.0 | 2.6 | 0.00 | 0.00 | 0.00 | 34 | 1003.8 |
| 20260504013518 | 63 | 0 | 0.0 | 2.6 | 0.00 | 0.00 | 0.00 | 33 | 1003.7 |
| 20260504013044 | 63 | 0 | 0.0 | 2.6 | 0.00 | 0.00 | 0.00 | 33 | 1003.8 |
| 20260504012517 | 64 | 0 | 0.0 | 2.6 | 0.00 | 0.00 | 0.00 | 32 | 1003.9 |
| 20260504012018 | 64 | 0 | 0.0 | 0.9 | 0.00 | 0.00 | 0.00 | 32 | 1003.8 |
| 20260504011538 | 64 | 0 | 0.0 | 0.9 | 0.00 | 0.00 | 0.00 | 31 | 1003.9 |
| 20260504011020 | 65 | 0 | 0.0 | 3.5 | 0.00 | 0.00 | 0.00 | 30 | 1003.9 |
| 20260504010518 | 65 | 250 | 0.0 | 3.5 | 0.00 | 0.00 | 0.00 | 30 | 1003.9 |
| 20260504010047 | 65 | 0 | 0.0 | 7.8 | 0.00 | 0.00 | 0.00 | 30 | 1003.9 |
| 20260504005520 | 65 | 0 | 0.9 | 7.8 | 0.00 | 0.00 | 0.00 | 29 | 1003.9 |
| 20260504005019 | 65 | 290 | 1.7 | 6.1 | 0.00 | 0.00 | 0.00 | 29 | 1004.0 |
| 20260504004546 | 66 | 281 | 2.6 | 5.2 | 0.00 | 0.00 | 0.00 | 29 | 1003.9 |
| 20260504004016 | 66 | 281 | 1.7 | 6.1 | 0.00 | 0.00 | 0.00 | 29 | 1003.8 |
| 20260504003518 | 66 | 0 | 1.7 | 8.7 | 0.00 | 0.00 | 0.00 | 28 | 1003.9 |
| 20260504003038 | 66 | 272 | 3.5 | 8.7 | 0.00 | 0.00 | 0.00 | 28 | 1003.8 |
| 20260504002518 | 67 | 238 | 1.7 | 7.0 | 0.00 | 0.00 | 0.00 | 28 | 1004.0 |
| 20260504002015 | 67 | 248 | 1.7 | 8.7 | 0.00 | 0.00 | 0.00 | 27 | 1004.0 |
| 20260504001537 | 68 | 200 | 2.6 | 8.7 | 0.00 | 0.00 | 0.00 | 27 | 1004.0 |
| 20260504001016 | 68 | 238 | 1.7 | 7.8 | 0.00 | 0.00 | 0.00 | 27 | 1004.0 |
| 20260504000516 | 69 | 257 | 2.6 | 11.3 | 0.00 | 0.00 | 0.00 | 26 | 1004.0 |
| 20260504000037 | 69 | 281 | 2.6 | 11.3 | 0.00 | 0.00 | 0.00 | 27 | 1004.0 |
| 20260503235516 | 69 | 254 | 4.3 | 11.3 | 0.00 | 0.00 | 0.00 | 25 | 1004.0 |
| 20260503235018 | 69 | 292 | 3.5 | 9.6 | 0.00 | 0.00 | 0.00 | 25 | 1003.9 |
| 20260503234542 | 70 | 242 | 2.6 | 8.7 | 0.00 | 0.00 | 0.00 | 26 | 1003.9 |
| 20260503234019 | 70 | 239 | 0.9 | 7.8 | 0.00 | 0.00 | 0.00 | 26 | 1004.0 |
| 20260503233522 | 70 | 256 | 2.6 | 10.4 | 0.00 | 0.00 | 0.00 | 24 | 1004.0 |
| 20260503233037 | 70 | 236 | 3.5 | 10.4 | 0.00 | 0.00 | 0.00 | 25 | 1004.0 |
| 20260503232516 | 70 | 260 | 3.5 | 9.6 | 0.00 | 0.00 | 0.00 | 25 | 1004.1 |
| 20260503232019 | 70 | 265 | 3.5 | 12.2 | 0.00 | 0.00 | 0.00 | 25 | 1004.2 |
| 20260503231538 | 70 | 0 | 3.5 | 12.2 | 0.00 | 0.00 | 0.00 | 26 | 1004.2 |
| 20260503231019 | 71 | 310 | 3.5 | 9.6 | 0.00 | 0.00 | 0.00 | 25 | 1004.2 |
| 20260503230517 | 71 | 210 | 4.3 | 11.3 | 0.00 | 0.00 | 0.00 | 25 | 1004.2 |
| 20260503230040 | 71 | 294 | 4.3 | 13.0 | 0.00 | 0.00 | 0.00 | 25 | 1004.2 |
| 20260503225516 | 71 | 273 | 3.5 | 13.0 | 0.00 | 0.00 | 0.00 | 26 | 1004.3 |
| 20260503225019 | 71 | 299 | 2.6 | 7.8 | 0.00 | 0.00 | 0.00 | 28 | 1004.2 |
| 20260503224537 | 72 | 307 | 3.5 | 7.8 | 0.00 | 0.00 | 0.00 | 26 | 1004.2 |
| 20260503224016 | 71 | 317 | 1.7 | 10.4 | 0.00 | 0.00 | 0.00 | 28 | 1004.3 |
| 20260503223516 | 71 | 350 | 2.6 | 11.3 | 0.00 | 0.00 | 0.00 | 29 | 1004.2 |
| 20260503223037 | 70 | 322 | 2.6 | 11.3 | 0.00 | 0.00 | 0.00 | 29 | 1004.3 |
| 20260503222518 | 71 | 274 | 1.7 | 11.3 | 0.00 | 0.00 | 0.00 | 26 | 1004.3 |
| 20260503222019 | 72 | 277 | 4.3 | 13.0 | 0.00 | 0.00 | 0.00 | 25 | 1004.3 |
| 20260503221541 | 71 | 272 | 4.3 | 13.0 | 0.00 | 0.00 | 0.00 | 27 | 1004.3 |
| 20260503221016 | 72 | 302 | 4.3 | 13.0 | 0.00 | 0.00 | 0.00 | 25 | 1004.5 |
| 20260503220521 | 72 | 326 | 4.3 | 9.6 | 0.00 | 0.00 | 0.00 | 27 | 1004.5 |
| 20260503220042 | 72 | 312 | 3.5 | 9.6 | 0.00 | 0.00 | 0.00 | 27 | 1004.4 |
| 20260503215518 | 73 | 27 | 2.6 | 9.6 | 0.00 | 0.00 | 0.00 | 25 | 1004.4 |
| 20260503215018 | 72 | 319 | 2.6 | 13.0 | 0.00 | 0.00 | 0.00 | 28 | 1004.5 |
| 20260503214538 | 73 | 293 | 6.1 | 13.0 | 0.00 | 0.00 | 0.00 | 27 | 1004.4 |
| 20260503214018 | 72 | 292 | 2.6 | 12.2 | 0.00 | 0.00 | 0.00 | 28 | 1004.3 |
| 20260503213516 | 72 | 329 | 3.5 | 12.2 | 0.00 | 0.00 | 0.00 | 27 | 1004.4 |
| 20260503213051 | 73 | 329 | 5.2 | 14.8 | 0.00 | 0.00 | 0.00 | 29 | 1004.5 |
| 20260503212517 | 72 | 279 | 6.1 | 14.8 | 0.00 | 0.00 | 0.00 | 26 | 1004.6 |
| 20260503212019 | 71 | 273 | 5.2 | 13.9 | 0.00 | 0.00 | 0.00 | 31 | 1004.6 |
| 20260503211537 | 71 | 317 | 6.1 | 13.9 | 0.00 | 0.00 | 0.00 | 28 | 1004.6 |
| 20260503211016 | 72 | 296 | 4.3 | 13.9 | 0.00 | 0.00 | 0.00 | 27 | 1004.7 |
| 20260503210519 | 72 | 355 | 3.5 | 11.3 | 0.00 | 0.00 | 0.00 | 29 | 1004.8 |
| 20260503210043 | 72 | 327 | 3.5 | 16.5 | 0.00 | 0.00 | 0.00 | 28 | 1004.9 |
| 20260503205516 | 72 | 262 | 7.0 | 20.9 | 0.00 | 0.00 | 0.00 | 24 | 1004.9 |
| 20260503205018 | 72 | 286 | 2.6 | 20.9 | 0.00 | 0.00 | 0.00 | 28 | 1004.9 |
| 20260503204550 | 73 | 309 | 6.1 | 13.9 | 0.00 | 0.00 | 0.00 | 26 | 1004.9 |
| 20260503204016 | 72 | 266 | 3.5 | 13.9 | 0.00 | 0.00 | 0.00 | 29 | 1004.9 |
| 20260503203519 | 72 | 260 | 3.5 | 12.2 | 0.00 | 0.00 | 0.00 | 30 | 1004.9 |
| 20260503203036 | 73 | 346 | 2.6 | 10.4 | 0.00 | 0.00 | 0.00 | 33 | 1005.0 |
| 20260503202519 | 72 | 317 | 5.2 | 20.0 | 0.00 | 0.00 | 0.00 | 26 | 1005.1 |
| 20260503202020 | 72 | 336 | 3.5 | 20.0 | 0.00 | 0.00 | 0.00 | 30 | 1005.2 |
| 20260503201617 | 72 | 40 | 7.8 | 20.0 | 0.00 | 0.00 | 0.00 | 26 | 1005.2 |
| 20260503201021 | 72 | 279 | 6.1 | 12.2 | 0.00 | 0.00 | 0.00 | 30 | 1005.2 |
| 20260503200517 | 72 | 328 | 4.3 | 14.8 | 0.00 | 0.00 | 0.00 | 33 | 1005.2 |
| 20260503200037 | 73 | 277 | 5.2 | 14.8 | 0.00 | 0.00 | 0.00 | 34 | 1005.3 |
| 20260503195516 | 72 | 280 | 2.6 | 13.9 | 0.00 | 0.00 | 0.00 | 32 | 1005.3 |
| 20260503195017 | 72 | 286 | 6.1 | 14.8 | 0.00 | 0.00 | 0.00 | 28 | 1005.4 |
| 20260503194542 | 71 | 284 | 5.2 | 14.8 | 0.00 | 0.00 | 0.00 | 30 | 1005.4 |
| 20260503194016 | 72 | 282 | 4.3 | 14.8 | 0.00 | 0.00 | 0.00 | 32 | 1005.5 |
| 20260503193519 | 73 | 273 | 5.2 | 13.0 | 0.00 | 0.00 | 0.00 | 34 | 1005.4 |
| 20260503193046 | 72 | 26 | 2.6 | 13.0 | 0.00 | 0.00 | 0.00 | 39 | 1005.3 |
| 20260503192516 | 73 | 265 | 6.1 | 13.0 | 0.00 | 0.00 | 0.00 | 35 | 1005.6 |
| 20260503192020 | 72 | 347 | 6.1 | 12.2 | 0.00 | 0.00 | 0.00 | 38 | 1005.4 |
| 20260503191535 | 71 | 292 | 3.5 | 12.2 | 0.00 | 0.00 | 0.00 | 34 | 1005.3 |
| 20260503191019 | 73 | 268 | 5.2 | 13.0 | 0.00 | 0.00 | 0.00 | 31 | 1005.5 |
| 20260503190520 | 73 | 286 | 6.1 | 13.0 | 0.00 | 0.00 | 0.00 | 34 | 1005.4 |
| 20260503190037 | 72 | 286 | 6.1 | 13.0 | 0.00 | 0.00 | 0.00 | 36 | 1005.4 |
| 20260503185516 | 72 | 286 | 3.5 | 13.0 | 0.00 | 0.00 | 0.00 | 36 | 1005.5 |
| 20260503185019 | 72 | 341 | 5.2 | 13.0 | 0.00 | 0.00 | 0.00 | 37 | 1005.5 |
| 20260503184548 | 72 | 306 | 5.2 | 13.0 | 0.00 | 0.00 | 0.00 | 38 | 1005.6 |
| 20260503184020 | 72 | 277 | 5.2 | 13.9 | 0.00 | 0.00 | 0.00 | 39 | 1005.6 |
| 20260503183517 | 72 | 274 | 2.6 | 13.9 | 0.00 | 0.00 | 0.00 | 39 | 1005.7 |
| 20260503183057 | 71 | 299 | 2.6 | 12.2 | 0.00 | 0.00 | 0.00 | 39 | 1005.6 |
| 20260503182518 | 71 | 355 | 4.3 | 12.2 | 0.00 | 0.00 | 0.00 | 42 | 1005.7 |
| 20260503182018 | 70 | 34 | 3.5 | 13.0 | 0.00 | 0.00 | 0.00 | 40 | 1005.7 |
| 20260503181537 | 71 | 17 | 6.1 | 13.0 | 0.00 | 0.00 | 0.00 | 40 | 1005.7 |
| 20260503181019 | 71 | 0 | 5.2 | 13.0 | 0.00 | 0.00 | 0.00 | 38 | 1005.8 |
| 20260503180517 | 71 | 266 | 2.6 | 13.0 | 0.00 | 0.00 | 0.00 | 41 | 1005.7 |
| 20260503180043 | 70 | 276 | 4.3 | 13.0 | 0.00 | 0.00 | 0.00 | 42 | 1005.8 |
| 20260503175516 | 71 | 275 | 3.5 | 12.2 | 0.00 | 0.00 | 0.00 | 40 | 1005.8 |
| 20260503175018 | 71 | 305 | 5.2 | 12.2 | 0.00 | 0.00 | 0.00 | 39 | 1005.9 |
| 20260503174536 | 71 | 281 | 3.5 | 10.4 | 0.00 | 0.00 | 0.00 | 41 | 1005.9 |
| 20260503174016 | 70 | 273 | 2.6 | 12.2 | 0.00 | 0.00 | 0.00 | 44 | 1006.0 |
| 20260503173516 | 70 | 30 | 3.5 | 12.2 | 0.00 | 0.00 | 0.00 | 36 | 1006.0 |
| 20260503173059 | 70 | 306 | 3.5 | 12.2 | 0.00 | 0.00 | 0.00 | 40 | 1005.9 |
| 20260503172515 | 68 | 272 | 4.3 | 13.9 | 0.00 | 0.00 | 0.00 | 39 | 1006.0 |
| 20260503172018 | 69 | 360 | 4.3 | 13.9 | 0.00 | 0.00 | 0.00 | 43 | 1006.2 |
| 20260503171541 | 71 | 17 | 4.3 | 12.2 | 0.00 | 0.00 | 0.00 | 37 | 1006.3 |
| 20260503171019 | 69 | 355 | 2.6 | 12.2 | 0.00 | 0.00 | 0.00 | 39 | 1006.2 |
| 20260503170516 | 69 | 352 | 1.7 | 14.8 | 0.00 | 0.00 | 0.00 | 45 | 1006.1 |
| 20260503150518 | 60 | 30 | 1.7 | 12.2 | 0.00 | 0.00 | 0.00 | 53 | 1005.7 |
| 20260503140105 | 55 | 344 | 1.7 | 7.8 | 0.00 | 0.00 | 0.00 | 56 | 1005.5 |
| 20260503131016 | 53 | 203 | 2.6 | 6.1 | 0.00 | 0.00 | 0.00 | 57 | 1005.2 |
| 20260503130519 | 52 | 229 | 1.7 | 4.3 | 0.00 | 0.00 | 0.00 | 58 | 1005.2 |
| 20260503110516 | 50 | 0 | 0.9 | 5.2 | 0.00 | 0.00 | 0.00 | 57 | 1004.3 |
| 20260503081539 | 54 | 196 | 2.6 | 12.2 | 0.00 | 0.00 | 0.00 | 57 | 1005.4 |
| 20260503081019 | 54 | 193 | 1.7 | 8.7 | 0.00 | 0.00 | 0.00 | 58 | 1005.5 |
| 20260503080518 | 54 | 191 | 2.6 | 8.7 | 0.00 | 0.00 | 0.00 | 58 | 1005.4 |
| 20260503072517 | 54 | 174 | 1.7 | 7.0 | 0.00 | 0.00 | 0.00 | 60 | 1006.1 |
| 20260503072017 | 54 | 153 | 0.9 | 6.1 | 0.00 | 0.00 | 0.00 | 59 | 1006.2 |
| 20260503071539 | 54 | 153 | 1.7 | 7.8 | 0.00 | 0.00 | 0.00 | 59 | 1006.3 |
| 20260503071018 | 54 | 162 | 2.6 | 7.8 | 0.00 | 0.00 | 0.00 | 59 | 1006.3 |
| 20260503070518 | 54 | 180 | 2.6 | 7.8 | 0.00 | 0.00 | 0.00 | 60 | 1006.4 |
| 20260503055018 | 56 | 182 | 0.9 | 7.0 | 0.00 | 0.00 | 0.00 | 50 | 1007.8 |
| 20260503054538 | 56 | 192 | 2.6 | 7.8 | 0.00 | 0.00 | 0.00 | 49 | 1007.8 |
| 20260503054021 | 56 | 192 | 1.7 | 7.8 | 0.00 | 0.00 | 0.00 | 50 | 1007.7 |
| 20260503053517 | 56 | 175 | 2.6 | 7.8 | 0.00 | 0.00 | 0.00 | 49 | 1007.8 |
| 20260503053037 | 56 | 0 | 1.7 | 8.7 | 0.00 | 0.00 | 0.00 | 49 | 1007.8 |
| 20260503052521 | 56 | 0 | 2.6 | 8.7 | 0.00 | 0.00 | 0.00 | 49 | 1007.9 |
| 20260503052017 | 56 | 194 | 1.7 | 7.8 | 0.00 | 0.00 | 0.00 | 49 | 1007.9 |
| 20260503051540 | 56 | 0 | 2.6 | 7.8 | 0.00 | 0.00 | 0.00 | 49 | 1007.8 |
| 20260503051019 | 56 | 175 | 2.6 | 7.8 | 0.00 | 0.00 | 0.00 | 49 | 1007.9 |
| 20260503050519 | 56 | 184 | 1.7 | 7.8 | 0.00 | 0.00 | 0.00 | 49 | 1007.9 |
| 20260503050038 | 57 | 157 | 0.9 | 7.0 | 0.00 | 0.00 | 0.00 | 49 | 1008.0 |
| 20260503045517 | 57 | 173 | 1.7 | 7.0 | 0.00 | 0.00 | 0.00 | 49 | 1008.1 |
| 20260503045018 | 57 | 179 | 1.7 | 7.0 | 0.00 | 0.00 | 0.00 | 49 | 1008.0 |
| 20260503044537 | 57 | 0 | 0.9 | 7.8 | 0.00 | 0.00 | 0.00 | 49 | 1008.1 |
| 20260503044017 | 57 | 190 | 1.7 | 7.8 | 0.00 | 0.00 | 0.00 | 48 | 1008.2 |
| 20260503043517 | 58 | 0 | 1.7 | 5.2 | 0.00 | 0.00 | 0.00 | 48 | 1008.4 |
| 20260503043041 | 58 | 173 | 0.9 | 5.2 | 0.00 | 0.00 | 0.00 | 48 | 1008.5 |
| 20260503042517 | 58 | 170 | 1.7 | 5.2 | 0.00 | 0.00 | 0.00 | 48 | 1008.5 |
| 20260503042019 | 58 | 188 | 0.9 | 4.3 | 0.00 | 0.00 | 0.00 | 47 | 1008.6 |
| 20260503041537 | 58 | 182 | 0.9 | 6.1 | 0.00 | 0.00 | 0.00 | 47 | 1008.7 |
| 20260503041022 | 59 | 0 | 0.9 | 6.1 | 0.00 | 0.00 | 0.00 | 46 | 1008.8 |
| 20260503040517 | 59 | 157 | 1.7 | 5.2 | 0.00 | 0.00 | 0.00 | 45 | 1008.9 |